#timestamp,LO_Frequency,Hit,StdDev 
1520892015.7,286047000.8,N
1520892035.5,286047000.6,N
1520892055.3,286046998.5,N
1520892075.2,286046999.0,N
1520892095.9,286047001.1,N
1520892115.7,286046999.9,N
1520892135.6,286047000.2,N
1520892155.4,286047000.3,N
1520892175.3,286046999.4,N
1520892195.1,286046996.9,N
1520892196.0,286046996.9,N
1520892215.8,286046999.6,N
1520892235.7,286046998.7,N
1520892255.5,286047001.1,N
1520892275.3,286046999.3,N
1520892295.2,286046998.6,N
1520892315.0,286046999.5,N
1520892315.9,286046999.5,N
1520892335.8,286046999.0,N
1520892355.6,286046999.5,N
1520892375.4,286046996.6,N
1520892395.3,286046997.5,N
1520892415.1,286046996.9,N
1520892435.8,286046999.2,N
1520892455.7,286047000.2,N
1520892475.5,286047002.8,N
1520892495.4,286046998.4,N
1520892515.2,286046999.4,N
1520892535.0,286047000.5,N
1520892535.9,286047000.5,N
1520892555.8,286047001.5,N
1520892575.6,286047001.0,N
1520892595.4,286047002.3,N
1520892615.3,286047000.0,N
1520892635.1,286047001.2,N
1520892655.9,286047002.5,N
1520892675.7,286047000.6,N
1520892695.5,286047000.4,N
1520892715.4,286047000.4,N
1520892735.2,286047001.2,N
1520892755.0,286046998.3,N
1520892755.9,286046998.3,N
1520892775.8,286047001.2,N
1520892795.6,286047000.1,N
1520892815.5,286047001.2,N
1520892835.3,286047000.3,N
1520892855.1,286047000.9,N
1520892875.9,286047000.1,N
1520892895.7,286047001.6,N
1520892915.5,286047002.5,N
1520892935.4,286047000.1,N
1520892955.2,286047001.6,N
1520892975.1,286047001.3,N
1520892976.0,286047001.3,N
1520892995.8,286047000.3,N
1520893015.6,286047000.2,N
1520893035.5,286046998.1,N
1520893055.3,286046999.8,N
1520893075.2,286047001.1,N
1520893095.9,286047001.6,N
1520893115.7,286047002.0,N
1520893135.6,286047003.9,Y
1520893155.4,286047001.8,P
1520893175.2,286047001.3,N
1520893195.1,286046999.7,N
1520893196.0,286046999.7,N
1520893215.8,286047000.7,N
1520893235.7,286046998.5,N
1520893255.5,286046999.7,N
1520893275.3,286047000.3,N
1520893295.2,286047000.3,N
1520893315.0,286047002.2,N
1520893315.9,286047002.2,N
1520893335.8,286047000.0,N
1520893355.6,286046998.6,N
1520893375.4,286046999.5,N
1520893395.3,286046996.5,Y
1520893415.1,286046999.2,P
1520893435.9,286046999.9,N
1520893455.7,286046999.1,N
1520893475.5,286046997.3,Y
1520893495.4,286046997.3,P
1520893515.2,286046997.9,N
1520893535.0,286046996.5,P
1520893536.0,286046996.5,Y
1520893555.8,286046998.6,P
1520893575.6,286046998.6,P
1520893595.5,286046999.4,N
1520893615.3,286047000.7,N
1520893635.1,286046999.9,N
1520893655.9,286047002.1,N
1520893675.7,286047001.9,N
1520893695.6,286047002.5,N
1520893715.4,286046999.8,N
1520893735.2,286047000.9,N
1520893755.1,286047000.3,N
1520893756.0,286047000.3,N
1520893775.8,286047002.8,N
1520893795.6,286047000.2,N
1520893815.5,286047001.0,N
1520893835.3,286046999.7,N
1520893855.2,286047004.1,Y
1520893875.9,286047001.3,P
1520893895.7,286047003.2,P
1520893915.6,286047001.5,N
1520893935.4,286047002.0,N
1520893955.3,286047001.7,N
1520893975.1,286047003.5,Y
1520893976.0,286047003.5,P
1520893995.8,286047002.0,N
1520894015.7,286047000.8,N
1520894035.5,286046998.4,N
1520894055.3,286047001.1,N
1520894075.2,286047000.8,N
1520894095.0,286047000.9,N
1520894095.9,286047000.9,N
1520894115.8,286047001.2,N
1520894135.6,286046999.5,N
1520894155.4,286046997.3,N
1520894175.3,286046999.1,N
1520894195.1,286047000.7,N
1520894215.8,286046999.1,N
1520894235.7,286047000.7,N
1520894255.5,286047000.6,N
1520894275.4,286047000.6,N
1520894295.2,286047000.3,N
1520894315.0,286047001.0,N
1520894315.9,286047001.0,N
1520894335.8,286046998.3,N
1520894355.6,286046998.6,N
1520894375.4,286047000.0,N
1520894395.3,286047002.2,N
1520894415.1,286046999.7,N
1520894435.9,286046998.4,N
1520894455.7,286047000.8,N
1520894475.5,286046999.9,N
1520894495.4,286047002.2,N
1520894515.2,286047001.4,N
1520894535.0,286047002.4,N
1520894535.9,286047002.4,N
1520894555.8,286047001.5,N
1520894575.6,286047001.3,N
1520894595.5,286047002.3,N
1520894615.3,286047000.3,N
1520894635.1,286047000.0,N
1520894655.9,286047000.0,N
1520894675.7,286047000.2,N
1520894695.5,286046999.7,N
1520894715.4,286047000.7,N
1520894735.2,286047000.0,N
1520894755.1,286047002.1,N
1520894756.0,286047002.1,N
1520894775.8,286047003.2,N
1520894795.6,286047003.4,N
1520894815.5,286047001.7,N
1520894835.3,286046998.9,N
1520894855.1,286047000.0,N
1520894875.9,286047003.3,N
1520894895.7,286047002.6,N
1520894915.6,286047000.7,N
1520894935.4,286046998.4,N
1520894955.2,286046999.3,N
1520894975.1,286046998.3,N
1520894976.0,286046998.3,N
1520894995.8,286047000.2,N
1520895015.7,286047002.2,N
1520895035.5,286047000.5,N
1520895055.3,286047000.6,N
1520895075.2,286046997.3,N
1520895095.0,286046995.7,N
1520895095.9,286046995.7,N
1520895115.7,286046997.7,N
1520895135.6,286046995.1,N
1520895155.4,286046996.9,N
1520895175.3,286046999.3,N
1520895195.1,286047001.0,N
1520895196.0,286047001.0,N
1520895215.8,286046999.9,N
1520895235.7,286047000.5,N
1520895255.5,286046998.4,N
1520895275.3,286046998.7,N
1520895295.2,286047000.5,N
1520895315.0,286046999.0,N
1520895315.9,286046999.0,N
1520895335.8,286046997.9,N
1520895355.6,286046995.8,N
1520895375.4,286046997.7,N
1520895395.3,286046997.0,N
1520895415.1,286046999.5,N
1520895435.9,286046999.3,N
1520895455.7,286046998.1,N
1520895475.5,286046999.1,N
1520895495.4,286046998.3,N
1520895515.2,286046998.8,N
1520895535.1,286046996.6,N
1520895536.0,286046996.6,N
1520895555.8,286046999.4,N
1520895575.6,286046997.0,N
1520895595.5,286046999.5,N
